, LA

(GMT )
East Cameron 278

Weather History for KEHC - February, 2014

Change the Weather History Date:

Sunday, February 2, 2014

  Actual Average Record
Temperature  
Mean Temperature 66 °F -  
Max Temperature 78 °F - - ()
Min Temperature 55 °F - - ()
Cooling Degree Days 2    
Growing Degree Days 16 (Base 50)    
Moisture  
Dew Point 66 °F    
Average Humidity 84    
Maximum Humidity 94    
Minimum Humidity 74    
Precipitation  
Precipitation 0.00 in - - ()
Sea Level Pressure  
Sea Level Pressure 29.93 in    
Wind  
Wind Speed 16 mph (SSE)    
Max Wind Speed 30 mph    
Max Gust Speed 33 mph    
Visibility 6 miles    
Events      
T = Trace of Precipitation, MM = Missing Value Source: NWS Daily Summary

Daily Weather History Graph

Daily Weather History Graph

Search for Another Location

Airport or City:

Trip Planner

Search our weather history database for the weather conditions in past years. The results will help you decide how hot, cold, wet, or windy it might be!

Date:

Astronomy

Feb. 02, 2014 Rise Set
Actual Time 6:58 AM CST 5:52 PM CST
Civil Twilight 6:34 AM CST 6:16 PM CST
Nautical Twilight 6:05 AM CST 6:44 PM CST
Astronomical Twilight 5:38 AM CST 7:12 PM CST
Moon 8:45 AM CST (2/2) 9:13 PM CST (2/2)
Length of Visible Light 11h 42m
Length of Day
10h 53m
Waxing Crescent, 11% of the Moon is Illuminated
Feb 2
Waxing Crescent
Feb 6
First Quarter
Feb 14
Full
Feb 22
Last Quarter
Mar 1
New

Hourly Weather History & Observations

Time (CST) Temp. Dew Point Humidity Pressure Visibility Wind Dir Wind Speed Gust Speed Precip Events Conditions
12:15 AM 73.4 °F 68.0 °F 83% 29.92 in 8.0 mi SE 17.3 mph - N/A   Mostly Cloudy
12:35 AM 73.4 °F 68.0 °F 83% 29.93 in 8.0 mi SE 17.3 mph - N/A   Unknown
12:55 AM 73.4 °F 68.0 °F 83% 29.93 in 8.0 mi SSE 16.1 mph - N/A   Unknown
1:15 AM 73.4 °F 68.0 °F 83% 29.93 in 8.0 mi SSE 15.0 mph - N/A   Unknown
1:35 AM 73.4 °F 68.0 °F 83% 29.93 in 9.0 mi SSE 13.8 mph - N/A   Overcast
1:55 AM 71.6 °F 68.0 °F 88% 29.93 in 7.0 mi SE 10.4 mph - N/A   Overcast
2:15 AM 71.6 °F 68.0 °F 88% 29.93 in 7.0 mi SE 10.4 mph - N/A   Overcast
2:25 AM 71.6 °F 68.0 °F 88% 29.92 in 7.0 mi SE 9.2 mph - N/A   Mostly Cloudy
2:55 AM 69.8 °F 68.0 °F 94% 29.92 in 6.0 mi SE 10.4 mph - N/A   Mist
3:35 AM 71.6 °F 68.0 °F 88% 29.92 in 8.0 mi SE 9.2 mph - N/A   Unknown
3:50 AM 69.8 °F 68.0 °F 94% 29.92 in 6.0 mi SE 6.9 mph - N/A   Mist
4:05 AM 69.8 °F 68.0 °F 94% 29.91 in 6.0 mi SE 8.1 mph - N/A   Mist
4:25 AM 69.8 °F 68.0 °F 94% 29.91 in 6.0 mi SE 9.2 mph - N/A   Mist
4:55 AM 69.8 °F 68.0 °F 94% 29.91 in 6.0 mi SE 11.5 mph - N/A   Mist
5:15 AM 71.6 °F 69.8 °F 94% 29.91 in 7.0 mi SE 15.0 mph - N/A   Unknown
5:30 AM 73.4 °F 68.0 °F 83% 29.92 in 8.0 mi SSE 16.1 mph - N/A   Unknown
5:55 AM 73.4 °F 68.0 °F 83% 29.92 in 7.0 mi SSE 12.7 mph - N/A   Unknown
6:15 AM 73.4 °F 68.0 °F 83% 29.92 in 7.0 mi SSE 12.7 mph - N/A   Mostly Cloudy
6:35 AM 73.4 °F 68.0 °F 83% 29.93 in 8.0 mi SSE 12.7 mph 18.4 mph N/A   Mostly Cloudy
6:55 AM 73.4 °F 68.0 °F 83% 29.93 in 8.0 mi SSE 10.4 mph - N/A   Mostly Cloudy
7:15 AM 73.4 °F 68.0 °F 83% 29.92 in 6.0 mi SE 11.5 mph - N/A   Haze
7:35 AM 73.4 °F 68.0 °F 83% 29.93 in 6.0 mi SSE 13.8 mph - N/A   Haze
7:55 AM 73.4 °F 68.0 °F 83% 29.93 in 6.0 mi SE 15.0 mph - N/A   Haze
8:15 AM 73.4 °F 68.0 °F 83% 29.93 in 6.0 mi SE 16.1 mph - N/A   Haze
8:35 AM 73.4 °F 68.0 °F 83% 29.94 in 6.0 mi SE 16.1 mph - N/A   Haze
8:55 AM 73.4 °F 68.0 °F 83% 29.94 in 6.0 mi SSE 15.0 mph - N/A   Haze
9:15 AM 73.4 °F 68.0 °F 83% 29.94 in 5.0 mi SSE 12.7 mph - N/A   Haze
9:35 AM 75.2 °F 68.0 °F 78% 29.94 in - SSE 11.5 mph - N/A   Mostly Cloudy
9:55 AM 75.2 °F 68.0 °F 78% 29.93 in 6.0 mi SSE 13.8 mph - N/A   Haze
10:15 AM 75.2 °F 68.0 °F 78% 29.93 in 5.0 mi SSE 17.3 mph - N/A   Haze
10:35 AM 75.2 °F 68.0 °F 78% 29.93 in 6.0 mi SSE 13.8 mph - N/A   Haze
10:55 AM 75.2 °F 68.0 °F 78% 29.93 in 5.0 mi SSE 13.8 mph - N/A   Haze
11:15 AM 75.2 °F 68.0 °F 78% 29.93 in 6.0 mi South 16.1 mph - N/A   Haze
11:35 AM 75.2 °F 68.0 °F 78% 29.92 in 5.0 mi South 18.4 mph - N/A   Haze
11:55 AM 75.2 °F 68.0 °F 78% 29.92 in 5.0 mi South 17.3 mph 23.0 mph N/A   Haze
12:15 PM 75.2 °F 68.0 °F 78% 29.91 in 5.0 mi South 18.4 mph 24.2 mph N/A   Haze
12:35 PM 77.0 °F 68.0 °F 74% 29.90 in 5.0 mi South 20.7 mph - N/A   Haze
12:55 PM 77.0 °F 69.8 °F 78% 29.90 in 5.0 mi South 21.9 mph - N/A   Haze
1:15 PM 78.8 °F 69.8 °F 74% 29.89 in 7.0 mi South 20.7 mph - N/A   Scattered Clouds
1:35 PM 77.0 °F 68.0 °F 74% 29.89 in 5.0 mi South 19.6 mph - N/A   Haze
1:55 PM 75.2 °F 68.0 °F 78% 29.88 in 4.0 mi South 18.4 mph - N/A   Haze
2:15 PM 78.8 °F 69.8 °F 74% 29.87 in 5.0 mi South 19.6 mph - N/A   Haze
2:35 PM 77.0 °F 69.8 °F 78% 29.87 in 5.0 mi South 20.7 mph - N/A   Haze
2:55 PM 77.0 °F 69.8 °F 78% 29.87 in 5.0 mi South 20.7 mph - N/A   Haze
3:15 PM 78.8 °F 69.8 °F 74% 29.88 in 5.0 mi South 19.6 mph - N/A   Haze
3:35 PM 77.0 °F 69.8 °F 78% 29.88 in 6.0 mi South 18.4 mph - N/A   Haze
3:55 PM 75.2 °F 68.0 °F 78% 29.88 in 5.0 mi South 18.4 mph - N/A   Haze
4:15 PM 75.2 °F 68.0 °F 78% 29.89 in 4.0 mi South 18.4 mph - N/A   Haze
4:35 PM 73.4 °F 68.0 °F 83% 29.89 in 4.0 mi South 17.3 mph - N/A   Haze
4:55 PM 73.4 °F 68.0 °F 83% 29.89 in 4.0 mi South 18.4 mph - N/A   Haze
5:15 PM 73.4 °F 68.0 °F 83% 29.90 in 4.0 mi South 18.4 mph - N/A   Haze
5:35 PM 75.2 °F 69.8 °F 83% 29.91 in 4.0 mi South 17.3 mph - N/A   Haze
5:55 PM 75.2 °F 69.8 °F 83% 29.91 in 3.0 mi South 16.1 mph - N/A   Haze
6:10 PM 75.2 °F 69.8 °F 83% 29.91 in 5.0 mi South 18.4 mph - N/A   Haze
6:35 PM 75.2 °F 69.8 °F 83% 29.92 in 5.0 mi South 18.4 mph - N/A   Haze
6:50 PM 75.2 °F 69.8 °F 83% 29.92 in 5.0 mi South 17.3 mph - N/A   Haze
7:15 PM 75.2 °F 69.8 °F 83% 29.93 in 6.0 mi South 17.3 mph - N/A   Haze
7:35 PM 73.4 °F 68.0 °F 83% 29.92 in 5.0 mi South 19.6 mph - N/A   Haze
7:55 PM 73.4 °F 69.8 °F 88% 29.93 in 6.0 mi South 21.9 mph - N/A   Haze
8:15 PM 75.2 °F 69.8 °F 83% 29.94 in 6.0 mi South 19.6 mph - N/A   Haze
8:35 PM 66.2 °F 60.8 °F 83% 29.97 in 3.0 mi NW 20.7 mph 33.4 mph N/A   Haze
8:55 PM 59.0 °F 57.2 °F 94% 29.98 in 2.5 mi NW 29.9 mph - N/A   Mist
9:15 PM 57.2 °F 55.4 °F 94% 29.99 in 2.0 mi NNW 23.0 mph 31.1 mph N/A   Mist
9:35 PM 55.4 °F 53.6 °F 94% 29.99 in 3.0 mi NNW 20.7 mph 26.5 mph N/A   Mist
9:55 PM 55.4 °F 53.6 °F 94% 30.00 in 3.0 mi NNW 21.9 mph - N/A   Mist
10:15 PM 55.4 °F 53.6 °F 94% 30.01 in 3.0 mi NNW 23.0 mph - N/A   Mist
10:35 PM 55.4 °F 53.6 °F 94% 30.01 in 3.0 mi North 24.2 mph - N/A   Mist
10:55 PM 55.4 °F 53.6 °F 94% 30.02 in 5.0 mi North 24.2 mph - N/A   Mist
11:15 PM 55.4 °F 53.6 °F 94% 30.02 in 4.0 mi North 24.2 mph - N/A   Mist
11:35 PM 55.4 °F 53.6 °F 94% 30.02 in 6.0 mi North 23.0 mph - N/A   Mist
11:55 PM 55.4 °F 53.6 °F 94% 30.02 in 8.0 mi North 21.9 mph - N/A   Unknown